Location: Unspecified
(52.4292°N, 19.3359°E)
Time: 23:09:28
(UTC+02:00)

BlueWalker 3 - Visible Passes

Search period start: 26 March 2023 00:00
Search period end: 05 April 2023 01:00
Orbit: 497 x 515 km, 53.2° (Epoch: 25 March)

Date Brightness Start Highest point End Pass type
(mag) Time Alt. Az. Time Alt. Az. Time Alt. Az.
27 Mar 3.4 20:53:44 10° SSW 20:55:49 22° S 20:55:49 22° S visible
28 Mar 3.0 20:34:00 10° SSW 20:37:16 26° SE 20:37:58 24° SE visible
28 Mar 4.1 22:11:35 10° WSW 22:12:46 19° WSW 22:12:46 19° WSW visible
29 Mar 3.0 20:14:16 10° SSW 20:17:34 26° SE 20:19:51 16° E visible
29 Mar 2.7 21:51:53 10° WSW 21:54:38 44° WSW 21:54:38 44° WSW visible
30 Mar 3.0 19:54:29 10° SSW 19:57:50 27° SE 20:01:10 10° E visible
30 Mar 1.7 21:32:10 10° WSW 21:36:05 79° SSE 21:36:14 76° SE visible
30 Mar 4.9 23:10:50 10° W 23:11:00 11° W 23:11:00 11° W visible
31 Mar 1.8 21:12:26 10° WSW 21:16:21 80° SSE 21:17:39 40° E visible
31 Mar 4.2 22:51:07 10° W 22:52:25 20° W 22:52:25 20° W visible
01 Apr 1.8 20:52:42 10° WSW 20:56:37 81° SSE 20:58:56 23° E visible
01 Apr 3.4 22:31:22 10° W 22:33:41 34° WNW 22:33:41 34° WNW visible
02 Apr 1.9 20:32:57 10° WSW 20:36:52 83° SSE 20:40:06 15° ENE visible
02 Apr 2.4 22:11:37 10° W 22:14:50 58° WNW 22:14:50 58° WNW visible
03 Apr 1.9 20:13:11 10° WSW 20:17:07 84° SSE 20:21:01 10° ENE visible
03 Apr 1.9 21:51:52 10° W 21:55:47 80° N 21:55:55 78° NE visible
03 Apr 4.9 23:30:31 10° WNW 23:30:39 11° WNW 23:30:39 11° WNW visible
04 Apr 2.0 19:53:24 10° WSW 19:57:20 85° SSE 20:01:14 10° ENE visible
04 Apr 1.9 21:32:06 10° W 21:36:00 81° N 21:36:55 51° E visible
04 Apr 4.5 23:10:44 10° WNW 23:11:40 16° W 23:11:40 16° W visible
